This is the latest recevied weather packets stored in our database for station/object HG8GL-6. If no packets are shown the sender has not sent any weather packets the latest 10 day(s).
| Time | Temp. | Humidity | Pressure | Rain* | Wind** | Luminosity | Snow |
|---|---|---|---|---|---|---|---|
| 1788429362 | 30° C | 30% | 1019 hPa | 0 mm | - | - | - |
| 1788428762 | 30° C | 30% | 1020 hPa | 0 mm | - | - | - |
| 1788428102 | 30° C | 30% | 1020 hPa | 0 mm | - | - | - |
| 1788427472 | 30° C | 31% | 1020 hPa | 0 mm | - | - | - |
| 1788426872 | 30° C | 31% | 1020 hPa | 0 mm | - | - | - |
| 1788426272 | 29.44° C | 31% | 1020 hPa | 0 mm | - | - | - |
| 1788425642 | 29.44° C | 33% | 1020 hPa | 0 mm | - | - | - |
| 1788424982 | 28.89° C | 33% | 1020 hPa | 0 mm | - | - | - |
| 1788424382 | 28.33° C | 33% | 1021 hPa | 0 mm | - | - | - |
| 1788423752 | 28.33° C | 35% | 1021 hPa | 0 mm | - | - | - |
| 1788423152 | 27.78° C | 36% | 1021 hPa | 0 mm | - | - | - |
| 1788422552 | 26.67° C | 39% | 1020 hPa | 0 mm | - | - | - |
| 1788421952 | 26.11° C | 40% | 1020 hPa | 0 mm | - | - | - |
| 1788421352 | 25.56° C | 41% | 1020 hPa | 0 mm | - | - | - |
| 1788420722 | 25° C | 42% | 1020 hPa | 0 mm | - | - | - |
| 1788420092 | 24.44° C | 43% | 1020 hPa | 0 mm | - | - | - |
| 1788419462 | 23.89° C | 43% | 1020 hPa | 0 mm | - | - | - |
| 1788418802 | 23.89° C | 44% | 1020 hPa | 0 mm | - | - | - |
| 1788418172 | 23.33° C | 45% | 1020 hPa | 0 mm | - | - | - |
| 1788417572 | 23.33° C | 47% | 1020 hPa | 0 mm | - | - | - |
| 1788416942 | 22.22° C | 52% | 1020 hPa | 0 mm | - | - | - |
| 1788416312 | 21.67° C | 56% | 1020 hPa | 0 mm | - | - | - |
| 1788415712 | 20.56° C | 59% | 1020 hPa | 0 mm | - | - | - |
| 1788415081 | 19.44° C | 62% | 1020 hPa | 0 mm | - | - | - |
| 1788414451 | 18.89° C | 64% | 1020 hPa | 0 mm | - | - | - |
* Rain latest hour (hover to see other rain measurements)
** Current wind speed in m/s (hover to see current wind gust speed)